2021-029B (48160 NORAD) Tracking and Keplerian Element Data

This shows tracking and keplerian element data for the satellite.

Feedback or suggestion? Click here.




ElementValue
Catalog48160
Name2021-029B
Epoch Orbit61
Epoch Day103.05008453
Epoch Year2021
RAAN302.6685
Inclination51.6279
Eccentricity0.0011254
Argument of Perigee43.8669
Mean Anonmoly316.4662
Mean Motion16.54839101
Decay Rate0.28552164
L11 48160U 21029B 21103.05008453 .28552164 12949-4 14332-3 0 9993
L22 48160 51.6279 302.6685 0011254 43.8669 316.4662 16.54839101 613



Live tracking and technical data element details for 2021-029B (NORAD 48160). 2021-029B can be tracked NOW for your location showing map with azimuth and elevation plus other details from your city location.







IsCatalogInMostPopularTable: catalog: 48160, numindb: 91
Update: records affected: 1



GetName: 48160 2021-029B

Hit Count: updated at: Sun, 11 Jun 2023 00:25:07 GMT